TimeCST,TemperatureF,Dew PointF,Humidity,Sea Level PressureIn,VisibilityMPH,Wind Direction,Wind SpeedMPH,Gust SpeedMPH,PrecipitationIn,Events,Conditions,WindDirDegrees,DateUTC
12:00 AM,82.4,69.8,66,29.83,5.6,East,9.2,-,N/A,,Scattered Clouds,90,2013-04-18 06:00:00
1:00 AM,80.6,69.8,70,29.82,5.6,ESE,9.2,-,N/A,,Scattered Clouds,120,2013-04-18 07:00:00
2:00 AM,78.8,69.8,74,29.81,5.6,ESE,6.9,-,N/A,,Scattered Clouds,110,2013-04-18 08:00:00
3:00 AM,78.8,69.8,74,29.80,6.2,ESE,6.9,-,N/A,,Scattered Clouds,110,2013-04-18 09:00:00
4:00 AM,77.0,69.8,78,29.80,6.2,ESE,6.9,-,N/A,,Scattered Clouds,120,2013-04-18 10:00:00
5:00 AM,77.0,69.8,78,29.80,6.2,ESE,6.9,-,N/A,,Scattered Clouds,120,2013-04-18 11:00:00
6:00 AM,77.0,69.8,78,29.83,6.2,ESE,9.2,-,N/A,,Scattered Clouds,110,2013-04-18 12:00:00
7:00 AM,80.6,69.8,70,29.83,6.2,ESE,9.2,-,N/A,,Scattered Clouds,110,2013-04-18 13:00:00
8:00 AM,84.2,69.8,62,29.83,6.2,ESE,13.8,-,N/A,,Scattered Clouds,110,2013-04-18 14:00:00
9:00 AM,87.8,69.8,55,29.83,6.2,East,11.5,-,N/A,,Scattered Clouds,90,2013-04-18 15:00:00
10:00 AM,89.6,68.0,49,29.83,6.2,East,11.5,-,N/A,,Scattered Clouds,90,2013-04-18 16:00:00
11:00 AM,91.4,68.0,46,29.80,5.6,ENE,9.2,-,N/A,,Scattered Clouds,60,2013-04-18 17:00:00
12:00 PM,95.0,66.2,39,29.80,5.6,East,11.5,-,N/A,,Partly Cloudy,90,2013-04-18 18:00:00
1:00 PM,96.8,66.2,37,29.74,6.2,East,9.2,-,N/A,,Partly Cloudy,90,2013-04-18 19:00:00
2:00 PM,96.8,66.2,37,29.71,6.2,East,11.5,-,N/A,,Partly Cloudy,90,2013-04-18 20:00:00
3:00 PM,98.6,62.6,30,29.71,6.2,ESE,18.4,-,N/A,,Partly Cloudy,120,2013-04-18 21:00:00
4:00 PM,96.8,66.2,37,29.68,6.2,ESE,16.1,-,N/A,,Partly Cloudy,120,2013-04-18 22:00:00
5:00 PM,93.2,69.8,46,29.71,6.2,ESE,16.1,-,N/A,,Partly Cloudy,110,2013-04-18 23:00:00
6:00 PM,89.6,69.8,52,29.74,6.2,ESE,16.1,-,N/A,,Scattered Clouds,110,2013-04-19 00:00:00
7:00 PM,87.8,71.6,58,29.77,5.6,ESE,13.8,-,N/A,,Scattered Clouds,120,2013-04-19 01:00:00
8:00 PM,86.0,71.6,62,29.77,5.6,ESE,11.5,-,N/A,,Scattered Clouds,110,2013-04-19 02:00:00
9:00 PM,84.2,71.6,66,29.83,5.6,ESE,11.5,-,N/A,,Scattered Clouds,120,2013-04-19 03:00:00
10:00 PM,84.2,71.6,66,29.83,5.6,SE,13.8,-,N/A,,Scattered Clouds,130,2013-04-19 04:00:00
11:00 PM,84.2,73.4,70,29.83,5.6,ESE,16.1,-,N/A,,Scattered Clouds,110,2013-04-19 05:00:00